This is the latest recevied weather packets stored in our database for station/object KD7CTY. If no packets are shown the sender has not sent any weather packets the latest 10 day(s).
| Time | Temp. | Humidity | Pressure | Rain* | Wind** | Luminosity | Snow |
|---|---|---|---|---|---|---|---|
| 1777820824 | 15.56° C | 69% | 1013.4 hPa | 0 mm | - | 101 W/m² | - |
| 1777820520 | 15.56° C | 70% | 1013.4 hPa | 0 mm | - | 62 W/m² | - |
| 1777820217 | 15.56° C | 70% | 1013.6 hPa | 0 mm | - | 61 W/m² | - |
| 1777819915 | 15° C | 71% | 1013.7 hPa | 0 mm | - | 50 W/m² | - |
| 1777819612 | 15° C | 71% | 1013.1 hPa | 0 mm | - | 49 W/m² | - |
| 1777819310 | 15° C | 71% | 1013.5 hPa | 0 mm | - | 47 W/m² | - |
| 1777819006 | 15° C | 71% | 1013.4 hPa | 0 mm | - | 46 W/m² | - |
| 1777818703 | 14.44° C | 72% | 1013.2 hPa | 0 mm | - | 43 W/m² | - |
| 1777818400 | 14.44° C | 72% | 1013.2 hPa | 0 mm | - | 42 W/m² | - |
| 1777818097 | 14.44° C | 72% | 1013.1 hPa | 0 mm | - | 40 W/m² | - |
| 1777817793 | 14.44° C | 72% | 1013.5 hPa | 0 mm | - | 39 W/m² | - |
| 1777817491 | 14.44° C | 72% | 1013.3 hPa | 0 mm | - | 37 W/m² | - |
| 1777817186 | 14.44° C | 72% | 1013.3 hPa | 0 mm | - | 35 W/m² | - |
| 1777816885 | 14.44° C | 72% | 1013.2 hPa | 0 mm | - | 33 W/m² | - |
| 1777816581 | 14.44° C | 72% | 1013.3 hPa | 0 mm | - | 32 W/m² | - |
| 1777816278 | 13.89° C | 71% | 1013.3 hPa | 0 mm | - | 29 W/m² | - |
| 1777815976 | 13.89° C | 71% | 1013.2 hPa | 0 mm | - | 28 W/m² | - |
| 1777815673 | 14.44° C | 70% | 1013.1 hPa | 0 mm | - | 26 W/m² | - |
| 1777815370 | 14.44° C | 69% | 1013.2 hPa | 0 mm | - | 23 W/m² | - |
| 1777815067 | 14.44° C | 69% | 1013.1 hPa | 0 mm | - | 22 W/m² | - |
| 1777814763 | 13.89° C | 70% | 1013.1 hPa | 0 mm | - | 18 W/m² | - |
| 1777814460 | 14.44° C | 69% | 1013.1 hPa | 0 mm | - | 16 W/m² | - |
| 1777814157 | 14.44° C | 69% | 1012.9 hPa | 0 mm | - | 13 W/m² | - |
| 1777813854 | 14.44° C | 68% | 1012.9 hPa | 0 mm | - | 10 W/m² | - |
| 1777813551 | 14.44° C | 68% | 1013 hPa | 0 mm | - | 7 W/m² | - |
* Rain latest hour (hover to see other rain measurements)
** Current wind speed in m/s (hover to see current wind gust speed)